• MPC Preparation (Info)

  • MPEC 2019-V82 : 2019 VY2

    The following Minor Planet Electronic Circular may be linked-to from your own Web pages, but must not otherwise be redistributed electronically.

    A form allowing access to any MPEC is at the bottom of this page.


    Read MPEC 2019-V81 Read MPEC 2019-V83


    M.P.E.C. 2019-V82                              Issued 2019 November 6, 21:29 UT
    
         The Minor Planet Electronic Circulars contain information on unusual
             minor planets and routine data on comets.  They are published
        on behalf of Division F of the International Astronomical Union by the
              Minor Planet Center, Smithsonian Astrophysical Observatory,
                              Cambridge, MA 02138, U.S.A.
    
                 Prepared using the Tamkin Foundation Computer Network
    
                                  MPC@CFA.HARVARD.EDU
                URL https://www.minorplanetcenter.net/    ISSN 1523-6714
    
                                    2019 VY2                                 
    
    
    Observations:
         K19V02Y  C2019 10 26.52229702 33 36.567+44 34 29.29         21.0 GVEV082F51
         K19V02Y  C2019 10 26.54543602 33 40.302+44 29 52.78         20.1 GVEV082F51
         K19V02Y  C2019 10 31.53446302 48 31.897+24 42 31.28         19.8 GVEV082F51
         K19V02Y  C2019 10 31.54863902 48 33.706+24 38 36.46         19.9 GVEV082F51
         K19V02Y  C2019 10 31.57701302 48 37.453+24 30 45.45         20.2 GVEV082F51
         K19V02Y* C2019 11 02.48982402 53 32.240+15 31 34.64         20.09wUEV082F52
         K19V02Y  C2019 11 02.50074402 53 33.439+15 28 26.76         20.19wUEV082F52
         K19V02Y  C2019 11 02.51177702 53 34.686+15 25 16.74         20.12wUEV082F52
         K19V02Y  C2019 11 04.41115302 58 03.947+06 21 36.34         20.0 GVEV082F51
         K19V02Y  C2019 11 04.43527702 58 06.323+06 14 47.13         20.0 GVEV082F51
         K19V02Y  C2019 11 05.55322303 00 28.409+01 03 45.19         20.37wUEV082F51
         K19V02Y  C2019 11 05.57888703 00 31.060+00 56 45.17         20.33wUEV082F51
         K19V02Y  C2019 11 05.59106803 00 32.359+00 53 25.79         20.31wUEV082F51
    
    Observer details:
    F51 Pan-STARRS 1, Haleakala.  Observers J. Bulger, K. Chambers, T. Lowe, E. 
       Magnier, A. Schultz, M. Willman.  Measurers S. Chastel, M. Huber, Y. 
       Ramanjooloo, R. Wainscoat, R. Weryk, K. Chambers, T. de Boer, L. Denneau, J. 
       Fairlamb, H. Flewelling, C.-C. Lin, E. Magnier.  1.8-m Ritchey-Chretien + 
       CCD.
    F52 Pan-STARRS 2, Haleakala.  Observers J. Bulger, T. Dukes, T. Lowe, A. 
       Schultz, M. Willman.  Measurers K. Chambers, S. Chastel, T. de Boer, L. 
       Denneau, J. Fairlamb, H. Flewelling, M. Huber, C.-C. Lin, E. Magnier, Y. 
       Ramanjooloo, R. Wainscoat, R. Weryk.  1.8-m Ritchey-Chretien + CCD.
    
    Orbital elements:
    2019 VY2                                                 Earth MOID = 0.0966 AU
    Epoch 2019 Apr. 27.0 TT = JDT 2458600.5                 Bell
    M 228.07468              (2000.0)            P               Q
    n   0.65830135     Peri.  190.45585     +0.65113666     -0.70210601
    a   1.3087385      Node   219.84851     +0.72476363     +0.68792501
    e   0.1699930      Incl.   26.73102     +0.22525258     -0.18386498
    P   1.50           H   24.3           G   0.15           U   5
    Residuals in seconds of arc
    191026 F51  0.3+  0.0     191102 F52  0.1+  0.8-    191105 F51  0.0   0.0
    191026 F51  0.1-  0.0     191102 F52  0.1-  0.1-    191105 F51  0.0   0.2+
    191031 F51  0.0   0.1-    191102 F52  0.0   0.4+    191105 F51  0.0   0.1+
    191031 F51  0.2-  0.0     191104 F51  0.0   0.1-
    191031 F51  0.1-  0.3+    191104 F51  0.1+  0.2-
    
    Ephemeris:
    2019 VY2                 a,e,i = 1.31, 0.17, 27                  q = 1.0863
    Date    TT    R. A. (2000) Decl.     Delta      r    Elong.  Phase     V
    2019 10 07    01 06 34.1 +72 52 23   0.2433  1.1148   112.3    56.1    23.5
    ...
    2019 10 22    02 17 13.6 +56 37 38   0.1399  1.0967   133.7    41.0    21.8
    ...
    2019 10 30    02 44 21.6 +31 28 50   0.1025  1.0905   160.8    17.4    20.5
    ...
    2019 11 05    02 59 20.7 +03 36 58   0.09822 1.0876   167.1    11.8    20.2
    2019 11 06    03 01 28.3 -00 56 19   0.1000  1.0873   162.7    15.8    20.3
    2019 11 07    03 03 30.2 -05 17 31   0.1025  1.0870   158.2    19.8    20.5
    ...
    2019 11 13    03 13 58.1 -25 48 53   0.1281  1.0861   136.4    38.9    21.6
    ...
    2019 11 21    03 24 23.7 -40 25 15   0.1782  1.0873   119.7    52.1    22.7
    ...
    2019 12 06    03 38 38.7 -50 15 04   0.2832  1.0968   105.8    59.8    23.9
    
    A. U. Tomatic                (C) Copyright 2019 MPC           M.P.E.C. 2019-V82
    


    Read MPEC 2019-V81 Read MPEC 2019-V83


    MPEC number:

    Enter an MPEC number in one of the following forms:

    • 1997-B01 (the full form)
    • J97B01 (the packed version of the full form)
    • B01 (the abbreviated form)